Location: Lac Echo
(45.9375°N, 75.4580°W)
Time: 16:48:53
(UTC-04:00)

Amateur Radio Satellites - All Passes

Search period start: 18 April 2015 16:18
Search period end: 19 April 2015 16:18
Location: Lac Echo, 45.9375°N, 75.4580°W

Satellite Date Start Highest point End Downlink Frequencies (MHz)
Time Altitude Azimuth
Gurwin Techsat 1B 18 Apr 16:20:42 16:23:22 13° 274° (W) 16:25:45 435.225
ISS 18 Apr 16:30:53 16:34:09 67° 336° (NNW) 16:37:24 145.825
RS-15 18 Apr 16:32:36 16:43:27 80° 122° (ESE) 16:54:38 29.354- 29.394
AO-7 18 Apr 16:32:39 16:40:52 64° 256° (WSW) 16:49:07 29.400- 29.500
MOZHAYETS 4 18 Apr 16:35:18 16:37:44 14° 87° (E) 16:40:21
BEESAT 18 Apr 16:38:19 16:40:33 13° 302° (WNW) 16:42:34 436.000
SWISSCUBE 18 Apr 16:39:48 16:41:36 12° 303° (WNW) 16:43:10 437.505
GONETS M04 18 Apr 16:42:46 16:50:04 32° 84° (E) 16:57:37
STARS 18 Apr 16:43:47 16:48:10 58° 288° (WNW) 16:52:31 437.465
CUTE-I 18 Apr 16:47:56 16:50:43 15° 57° (ENE) 16:53:41 437.470
HORYU 2 18 Apr 16:50:24 16:53:53 21° 268° (W) 16:57:18 437.375
Cubesat XI-IV 18 Apr 16:54:31 16:57:45 17° 58° (ENE) 17:01:11 437.490
PCSat 18 Apr 16:58:24 17:00:45 13° 26° (NNE) 17:03:14 145.827
KKS-1 18 Apr 17:06:30 17:10:10 24° 295° (WNW) 17:13:45 437.445
CUSAT 1 18 Apr 17:46:05 17:47:41 13° 83° (E) 17:49:37 437.405
JAS-2 18 Apr 17:54:32 18:00:41 24° 274° (W) 18:06:34 435.910
ISS 18 Apr 18:07:58 18:10:53 29° 355° (N) 18:13:49 145.825
MOZHAYETS 4 18 Apr 18:10:55 18:15:31 66° 286° (WNW) 18:20:04
CUTE-I 18 Apr 18:24:46 18:30:06 87° 80° (E) 18:35:29 437.470
Cubesat XI-IV 18 Apr 18:31:55 18:37:17 81° 256° (WSW) 18:42:39 437.490
AO-7 18 Apr 18:32:07 18:35:37 12° 278° (W) 18:38:28 29.400- 29.500
PRISM 18 Apr 18:36:48 18:38:05 11° 87° (E) 18:39:34 437.425
GONETS M04 18 Apr 18:37:45 18:46:26 63° 285° (WNW) 18:55:11
PCSat 18 Apr 18:40:30 18:45:41 44° 49° (NE) 18:50:52 145.827
AUBIESAT-1 18 Apr 18:43:02 18:46:44 26° 97° (E) 18:50:16 437.475
RS-15 18 Apr 18:46:47 18:57:03 42° 330° (NNW) 19:07:34 29.354- 29.394
Cosmos 2499 18 Apr 19:09:20 19:17:35 47° 89° (E) 19:25:53 435.465 / 435.565
HO-68 18 Apr 19:11:45 19:17:10 25° 55° (NE) 19:22:46 435.675
DANDE 18 Apr 19:14:13 19:17:07 65° 284° (WNW) 19:20:47 436.750
CUBESAT XI-V 18 Apr 19:24:47 19:29:22 61° 101° (E) 19:33:55 437.345
CUSAT 1 18 Apr 19:27:00 19:29:55 32° 291° (WNW) 19:33:33 437.405
M-CUBED/EXP-1 PRIME 18 Apr 19:27:18 19:31:54 83° 106° (ESE) 19:36:06 437.505
STRAND 1 18 Apr 19:33:36 19:38:18 37° 96° (E) 19:43:01 437.568
BRITE-PL 18 Apr 19:42:31 19:46:05 29° 68° (ENE) 19:49:44 437.365/2234.400
ISS 18 Apr 19:44:42 19:47:47 38° 15° (NNE) 19:50:52 145.825
SO-50 18 Apr 19:45:04 19:46:32 11° 18° (NNE) 19:48:05 436.795
DOVE 4 18 Apr 19:49:04 19:51:37 16° 62° (ENE) 19:54:21 437.250
CINEMA 3 18 Apr 19:56:43 19:57:39 11° 58° (ENE) 19:58:48 145.822/145.860
CUTE-I 18 Apr 20:08:21 20:11:01 13° 274° (W) 20:13:25 437.470
COMPASS 1 18 Apr 20:08:30 20:11:35 20° 65° (ENE) 20:14:47 437.405
PRISM 18 Apr 20:10:00 20:14:07 69° 286° (WNW) 20:18:11 437.425
GOMX 1 18 Apr 20:10:28 20:14:16 36° 70° (ENE) 20:18:12 467.674
CANX-2 18 Apr 20:15:26 20:19:21 36° 70° (ENE) 20:23:20 2200.000
Cubesat XI-IV 18 Apr 20:16:35 20:18:22 11° 276° (W) 20:19:47 437.490
AUBIESAT-1 18 Apr 20:17:30 20:21:39 36° 298° (WNW) 20:25:29 437.475
SEEDS 18 Apr 20:20:40 20:24:26 32° 69° (ENE) 20:28:16 437.485
PCSat 18 Apr 20:24:10 20:29:00 33° 248° (WSW) 20:33:44 145.827
CUTE 1.7 + AOD 2 18 Apr 20:25:40 20:29:42 42° 71° (ENE) 20:33:48 437.475
YUBILEINY 18 Apr 20:33:36 20:35:53 11° 45° (NE) 20:38:45 435.215
VERMONT LUNAR 18 Apr 20:35:33 20:37:50 17° 159° (SSE) 20:40:09 437.305
GONETS M04 18 Apr 20:40:49 20:45:40 15° 310° (NW) 20:50:04
CUBEBUG 2 18 Apr 20:46:58 20:49:57 19° 63° (ENE) 20:53:06 437.445
ZACube-1 18 Apr 20:47:48 20:49:48 13° 60° (ENE) 20:51:59 437.345
AAUSAT CUBESAT 2 18 Apr 20:56:38 21:00:44 53° 72° (ENE) 21:04:53 437.432
HO-68 18 Apr 20:57:01 21:04:13 81° 254° (WSW) 21:11:29 435.675
Cosmos 2499 18 Apr 21:02:25 21:10:53 46° 290° (WNW) 21:19:10 435.465 / 435.565
CUBESAT XI-V 18 Apr 21:03:21 21:06:23 17° 298° (WNW) 21:09:17 437.345
M-CUBED/EXP-1 PRIME 18 Apr 21:03:36 21:06:06 14° 307° (NW) 21:08:22 437.505
Oscar 11 18 Apr 21:03:50 21:07:42 32° 68° (ENE) 21:11:37 145.826/435.025
RS-15 18 Apr 21:03:54 21:13:17 29° 3° (N) 21:23:02 29.354- 29.394
STRAND 1 18 Apr 21:12:58 21:17:27 31° 294° (WNW) 21:21:52 437.568
ISS 18 Apr 21:21:04 21:24:16 53° 214° (SW) 21:27:26 145.825
BRITE-PL 18 Apr 21:21:11 21:24:42 26° 266° (W) 21:28:11 437.365/2234.400
DELFI C3 18 Apr 21:23:24 21:27:11 37° 70° (ENE) 21:31:00 145.870
PHONESAT 2.4 18 Apr 21:23:55 21:26:16 17° 158° (SSE) 21:28:39 2401.200-2431.200
SO-50 18 Apr 21:24:12 21:28:38 32° 41° (NE) 21:33:06 436.795
DX 1 18 Apr 21:24:35 21:27:51 22° 64° (ENE) 21:31:12 434.975-435.025
DOVE 4 18 Apr 21:24:56 21:29:00 54° 261° (W) 21:33:15 437.250
UWE-3 18 Apr 21:28:44 21:32:42 39° 70° (ENE) 21:36:50 435.000/436.395/437.385
CINEMA 3 18 Apr 21:29:55 21:34:09 87° 76° (ENE) 21:38:36 145.822/145.860
COMPASS 1 18 Apr 21:42:59 21:47:02 43° 263° (W) 21:51:06 437.405
HUMSAT D 18 Apr 21:45:21 21:48:43 24° 66° (ENE) 21:52:11 437.325/437.525
GOMX 1 18 Apr 21:49:26 21:52:38 21° 269° (W) 21:55:48 467.674
CANX-2 18 Apr 21:51:55 21:55:24 23° 268° (W) 21:58:50 2200.000
SEEDS 18 Apr 21:56:38 22:00:16 26° 266° (W) 22:03:53 437.485
FUNcube-1 18 Apr 21:59:14 22:03:27 64° 74° (ENE) 22:07:49 145.935
VELOX 1 18 Apr 22:00:14 22:03:40 23° 65° (ENE) 22:07:11 145.980
CUTE 1.7 + AOD 2 18 Apr 22:02:37 22:05:52 20° 269° (W) 22:09:01 437.475
VERMONT LUNAR 18 Apr 22:11:49 22:14:52 31° 175° (S) 22:17:55 437.305
AISAT 18 Apr 22:14:20 22:18:13 32° 68° (ENE) 22:22:10 437.250
UKube-1 18 Apr 22:17:40 22:21:57 68° 74° (ENE) 22:26:16 .
Cosmos 2491 18 Apr 22:19:46 22:25:14 20° 77° (ENE) 22:31:09 435.465 / 435.565
ZACube-1 18 Apr 22:21:20 22:25:36 75° 257° (WSW) 22:30:00 437.345
CUBEBUG 2 18 Apr 22:22:10 22:26:18 49° 261° (W) 22:30:37 437.445
ESTCUBE 1 18 Apr 22:26:14 22:29:49 24° 65° (ENE) 22:33:29 437.505/2401.250
YUBILEINY 18 Apr 22:27:10 22:35:39 50° 72° (ENE) 22:44:05 435.215
CUBEBUG 1 18 Apr 22:28:54 22:32:11 22° 65° (ENE) 22:35:33 437.445
AAUSAT CUBESAT 2 18 Apr 22:34:06 22:36:45 16° 271° (W) 22:39:14 437.432
Oscar 11 18 Apr 22:40:11 22:43:56 27° 266° (W) 22:47:37 145.826/435.025
50 SAT 18 Apr 22:42:41 22:46:36 60° 74° (ENE) 22:50:35 437.505
HO-68 18 Apr 22:48:57 22:53:14 16° 275° (W) 22:57:07 435.675
DELFI C3 18 Apr 22:59:20 23:02:30 21° 268° (W) 23:05:34 145.870
DX 1 18 Apr 22:59:46 23:03:53 42° 262° (W) 23:08:01 434.975-435.025
TIGRISAT 18 Apr 23:00:44 23:04:47 28° 94° (E) 23:08:52 435.000
PHONESAT 2.4 18 Apr 23:00:46 23:04:00 32° 174° (S) 23:07:14 2401.200-2431.200
UNISAT 6 18 Apr 23:01:21 23:05:28 29° 94° (E) 23:09:36 437.425
POPSAT HIP 1 18 Apr 23:01:29 23:03:33 14° 88° (E) 23:05:50 437.405
NANOSAT C BR1 18 Apr 23:01:55 23:03:59 14° 88° (E) 23:06:16 145.865
SO-50 18 Apr 23:04:37 23:09:23 47° 240° (WSW) 23:14:05 436.795
Cosmos 2499 18 Apr 23:04:59 23:06:57 11° 315° (NW) 23:08:19 435.465 / 435.565
UWE-3 18 Apr 23:06:03 23:09:27 22° 269° (W) 23:12:50 435.000/436.395/437.385
RS-15 18 Apr 23:18:23 23:29:15 48° 35° (NE) 23:40:41 29.354- 29.394
HUMSAT D 18 Apr 23:20:29 23:24:20 34° 264° (W) 23:28:14 437.325/437.525
O/OREOS (USA 219) 18 Apr 23:23:41 23:27:01 21° 103° (ESE) 23:30:28 437.305
POLYITAN 1 18 Apr 23:26:25 23:29:58 25° 94° (E) 23:33:35 437.675
VELOX 1 18 Apr 23:35:54 23:40:03 39° 262° (W) 23:44:12 145.980
DUCHIFAT 1 18 Apr 23:37:03 23:40:51 31° 96° (E) 23:44:40 145.980
FUNcube-1 18 Apr 23:38:06 23:40:21 13° 273° (W) 23:42:25 145.935
ANTELSAT 18 Apr 23:42:41 23:47:27 74° 103° (ESE) 23:52:09 437.575/2403.000
VERMONT LUNAR 18 Apr 23:49:07 23:52:00 26° 192° (SSW) 23:54:52 437.305
QB50P1 18 Apr 23:49:15 23:53:19 42° 98° (E) 23:57:24 145.935-145.965
AISAT 18 Apr 23:51:04 23:54:52 27° 266° (W) 23:58:37 437.250
UKube-1 18 Apr 23:56:35 23:58:39 13° 272° (W) 00:00:30 .
ESTCUBE 1 19 Apr 00:02:14 00:06:31 40° 263° (W) 00:10:47 437.505/2401.250
CUBEBUG 1 19 Apr 00:04:13 00:08:20 41° 262° (W) 00:12:27 437.445
BUGSAT 1 19 Apr 00:06:49 00:10:46 45° 99° (E) 00:14:45 437.445
Cosmos 2491 19 Apr 00:12:14 00:20:58 87° 98° (E) 00:29:47 435.465 / 435.565
QB50P2 19 Apr 00:12:20 00:16:38 77° 102° (ESE) 00:20:56 145.880/145.840
Cosmos 2504 19 Apr 00:15:12 00:21:42 25° 60° (ENE) 00:28:04 435.465 / 435.565
TISAT 1 19 Apr 00:18:04 00:22:12 64° 73° (ENE) 00:26:22 437.305
SPROUT 19 Apr 00:18:49 00:23:05 79° 75° (ENE) 00:27:23 437.525
50 SAT 19 Apr 00:20:06 00:21:55 12° 272° (W) 00:23:34 437.505
YUBILEINY 19 Apr 00:24:20 00:32:22 41° 273° (W) 00:40:13 435.215
BEESAT 19 Apr 00:31:28 00:34:44 19° 62° (ENE) 00:38:07 436.000
SWISSCUBE 19 Apr 00:32:24 00:35:52 21° 63° (ENE) 00:39:27 437.505
POPSAT HIP 1 19 Apr 00:35:41 00:39:56 63° 287° (WNW) 00:44:10 437.405
NANOSAT C BR1 19 Apr 00:36:05 00:40:19 62° 287° (WNW) 00:44:33 145.865
TIGRISAT 19 Apr 00:37:16 00:41:35 36° 291° (WNW) 00:45:52 435.000
UNISAT 6 19 Apr 00:37:59 00:42:17 34° 292° (WNW) 00:46:31 437.425
PHONESAT 2.4 19 Apr 00:38:42 00:41:51 29° 190° (S) 00:44:59 2401.200-2431.200
O/OREOS (USA 219) 19 Apr 01:01:43 01:06:10 47° 300° (WNW) 01:10:36 437.305
POLYITAN 1 19 Apr 01:02:03 01:05:57 34° 291° (WNW) 01:09:49 437.675
Oscar 19 19 Apr 01:11:19 01:13:20 12° 85° (E) 01:15:40 437.125/150
DUCHIFAT 1 19 Apr 01:12:59 01:16:37 27° 293° (WNW) 01:20:13 145.980
ANTELSAT 19 Apr 01:20:50 01:23:42 16° 299° (WNW) 01:26:24 437.575/2403.000
QB50P1 19 Apr 01:25:42 01:28:58 21° 295° (WNW) 01:32:07 145.935-145.965
VERMONT LUNAR 19 Apr 01:28:07 01:28:54 11° 207° (SSW) 01:29:37 437.305
RS-15 19 Apr 01:31:04 01:42:28 69° 241° (WSW) 01:54:19 29.354- 29.394
ITUPSAT 1 19 Apr 01:31:33 01:36:17 63° 72° (ENE) 01:41:03 437.325
AIST 1 19 Apr 01:34:19 01:38:19 38° 93° (E) 01:42:21
BUGSAT 1 19 Apr 01:43:05 01:45:59 18° 295° (WNW) 01:48:48 437.445
QB50P2 19 Apr 01:50:00 01:52:01 13° 299° (WNW) 01:53:52 145.880/145.840
TISAT 1 19 Apr 01:56:31 01:58:30 13° 272° (W) 02:00:18 437.305
SPROUT 19 Apr 01:58:50 01:59:50 10° 274° (W) 02:00:35 437.525
BEESAT 19 Apr 02:07:27 02:12:11 60° 259° (W) 02:16:57 436.000
Cosmos 2504 19 Apr 02:07:56 02:16:20 79° 264° (W) 02:24:03 435.465 / 435.565
STARS 19 Apr 02:08:04 02:11:11 20° 64° (ENE) 02:14:25 437.465
SWISSCUBE 19 Apr 02:08:42 02:13:23 54° 260° (W) 02:18:07 437.505
Cosmos 2491 19 Apr 02:12:27 02:19:14 23° 302° (WNW) 02:25:45 435.465 / 435.565
PHONESAT 2.4 19 Apr 02:17:47 02:19:30 13° 206° (SSW) 02:21:09 2401.200-2431.200
KKS-1 19 Apr 02:29:58 02:34:12 47° 71° (ENE) 02:38:30 437.445
Oscar 19 19 Apr 02:48:17 02:53:32 90° 305° (NW) 02:58:46 437.125/150
GONETS M04 19 Apr 02:49:15 02:54:58 19° 54° (NE) 03:01:03
Gurwin Techsat 1B 19 Apr 02:51:23 02:55:55 29° 93° (E) 03:00:31 435.225
ITAMSAT 1 19 Apr 03:06:05 03:11:00 43° 98° (E) 03:15:57 435.822/435.867
ITUPSAT 1 19 Apr 03:11:33 03:14:41 16° 271° (W) 03:17:37 437.325
AIST 1 19 Apr 03:12:50 03:16:11 21° 291° (WNW) 03:19:26
MOZHAYETS 4 19 Apr 03:39:31 03:42:46 20° 63° (ENE) 03:46:10
STARS 19 Apr 03:43:07 03:47:21 47° 261° (W) 03:51:37 437.465
RS-15 19 Apr 03:46:05 03:53:06 17° 261° (W) 03:59:24 29.354- 29.394
Cosmos 2504 19 Apr 04:03:41 04:08:25 16° 285° (WNW) 04:12:32 435.465 / 435.565
DANDE 19 Apr 04:06:15 04:11:00 22° 65° (ENE) 04:16:47 436.750
KKS-1 19 Apr 04:07:57 04:11:09 19° 269° (W) 04:14:15 437.445
BEESAT 2 19 Apr 04:13:23 04:15:39 15° 112° (ESE) 04:18:04 435.950
CUSAT 1 19 Apr 04:15:52 04:21:39 32° 68° (ENE) 04:28:35 437.405
BEESAT 3 19 Apr 04:20:54 04:23:55 21° 114° (ESE) 04:27:04 437.485
Oscar 19 19 Apr 04:29:20 04:32:14 15° 302° (WNW) 04:34:57 437.125/150
Gurwin Techsat 1B 19 Apr 04:31:04 04:36:04 42° 292° (WNW) 04:41:01 435.225
AO-7 19 Apr 04:31:26 04:39:02 39° 97° (E) 04:46:43 29.400- 29.500
HORYU 2 19 Apr 04:37:53 04:42:23 62° 102° (ESE) 04:46:49 437.375
M-CUBED/EXP-1 PRIME 19 Apr 04:43:48 04:47:28 23° 58° (ENE) 04:51:17 437.505
GONETS M04 19 Apr 04:44:47 04:53:41 77° 79° (E) 05:02:33
ITAMSAT 1 19 Apr 04:45:59 04:50:21 28° 296° (WNW) 04:54:39 435.822/435.867
CUBESAT XI-V 19 Apr 04:57:15 04:58:17 11° 58° (ENE) 04:59:33 437.345
Cosmos 2499 19 Apr 04:58:58 05:04:18 19° 55° (NE) 05:09:41 435.465 / 435.565
JAS-2 19 Apr 05:00:20 05:07:11 61° 99° (E) 05:13:11 435.910
MOZHAYETS 4 19 Apr 05:15:06 05:19:40 54° 261° (W) 05:24:15
STRAND 1 19 Apr 05:17:12 05:18:28 11° 55° (NE) 05:20:00 437.568
PRISM 19 Apr 05:29:22 05:31:27 14° 61° (ENE) 05:33:41 437.425
AUBIESAT-1 19 Apr 05:32:06 05:36:41 52° 66° (ENE) 05:41:24 437.475
DANDE 19 Apr 05:48:21 05:54:47 83° 261° (W) 06:02:52 436.750
BEESAT 2 19 Apr 05:49:13 05:53:19 66° 308° (NW) 05:57:29 435.950
BEESAT 3 19 Apr 05:57:42 06:01:41 47° 311° (NW) 06:05:43 437.485
CUSAT 1 19 Apr 05:58:05 06:04:42 60° 263° (W) 06:12:35 437.405
AIST 2 19 Apr 06:03:32 06:07:45 63° 122° (ESE) 06:12:01 435.215
HORYU 2 19 Apr 06:15:39 06:18:36 17° 298° (WNW) 06:21:23 437.375
M-CUBED/EXP-1 PRIME 19 Apr 06:17:20 06:21:58 54° 255° (WSW) 06:26:45 437.505
AO-7 19 Apr 06:24:06 06:32:09 55° 297° (WNW) 06:40:09 29.400- 29.500
CUBESAT XI-V 19 Apr 06:30:23 06:35:02 79° 75° (ENE) 06:39:41 437.345
CUTE-I 19 Apr 06:39:49 06:44:21 28° 94° (E) 06:48:56 437.470
GONETS M04 19 Apr 06:42:47 06:49:44 26° 279° (W) 06:56:21
JAS-2 19 Apr 06:45:59 06:51:46 28° 301° (WNW) 06:56:54 435.910
Cubesat XI-IV 19 Apr 06:47:00 06:51:46 33° 95° (E) 06:56:34 437.490
Cosmos 2499 19 Apr 06:50:53 06:59:07 83° 80° (E) 07:06:38 435.465 / 435.565
STRAND 1 19 Apr 06:51:45 06:56:50 68° 73° (ENE) 07:01:57 437.568
PRISM 19 Apr 07:02:17 07:06:28 68° 257° (WSW) 07:10:39 437.425
AUBIESAT-1 19 Apr 07:08:07 07:11:46 21° 264° (W) 07:15:23 437.475
BEESAT 2 19 Apr 07:30:06 07:32:17 14° 330° (NNW) 07:34:23 435.950
DANDE 19 Apr 07:33:22 07:37:41 17° 273° (W) 07:42:08 436.750
BEESAT 3 19 Apr 07:39:30 07:40:45 11° 333° (NNW) 07:41:55 437.485
AIST 2 19 Apr 07:43:22 07:46:44 22° 322° (NW) 07:50:05 435.215
CUSAT 1 19 Apr 07:44:12 07:46:46 12° 277° (W) 07:48:54 437.405
CUBESAT XI-V 19 Apr 08:11:07 08:13:09 12° 274° (W) 08:14:56 437.345
GOMX 1 19 Apr 08:11:14 08:12:17 11° 85° (E) 08:13:40 467.674
AO-7 19 Apr 08:18:45 08:23:18 16° 319° (NW) 08:27:31 29.400- 29.500
CUTE-I 19 Apr 08:19:36 08:24:36 42° 292° (WNW) 08:29:34 437.470
HO-68 19 Apr 08:23:41 08:27:57 17° 86° (E) 08:32:32 435.675
Cosmos 2491 19 Apr 08:25:52 08:28:23 12° 45° (NE) 08:31:28 435.465 / 435.565
Cubesat XI-IV 19 Apr 08:27:03 08:31:56 37° 293° (WNW) 08:36:45 437.490
STRAND 1 19 Apr 08:33:18 08:36:37 17° 272° (W) 08:39:45 437.568
Cosmos 2499 19 Apr 08:45:34 08:51:14 21° 281° (WNW) 08:56:19 435.465 / 435.565
ANTELSAT 19 Apr 09:10:55 09:12:21 12° 58° (ENE) 09:14:00 437.575/2403.000
DOVE 4 19 Apr 09:20:41 09:25:09 34° 95° (E) 09:29:51 437.250
BRITE-PL 19 Apr 09:21:12 09:26:00 72° 102° (ESE) 09:31:10 437.365/2234.400
CINEMA 3 19 Apr 09:22:40 09:26:10 20° 90° (E) 09:29:51 145.822/145.860
COMPASS 1 19 Apr 09:24:22 09:27:53 25° 93° (E) 09:31:25 437.405
PCSat 19 Apr 09:25:47 09:29:51 23° 109° (ESE) 09:34:04 145.827
O/OREOS (USA 219) 19 Apr 09:29:56 09:34:25 59° 62° (ENE) 09:38:52 437.305
CANX-2 19 Apr 09:33:50 09:38:03 51° 99° (E) 09:42:14 2200.000
SEEDS 19 Apr 09:37:56 09:42:00 42° 97° (E) 09:46:04 437.485
CUTE 1.7 + AOD 2 19 Apr 09:44:05 09:48:21 60° 100° (E) 09:52:35 437.475
GOMX 1 19 Apr 09:46:16 09:51:09 83° 104° (ESE) 09:56:22 467.674
FUNcube-1 19 Apr 09:47:26 09:48:47 11° 85° (E) 09:50:24 145.935
POPSAT HIP 1 19 Apr 09:57:05 09:59:27 15° 62° (ENE) 10:01:58 437.405
NANOSAT C BR1 19 Apr 09:57:17 09:59:39 15° 62° (ENE) 10:02:09 145.865
TIGRISAT 19 Apr 10:01:56 10:05:54 32° 67° (ENE) 10:09:59 435.000
UNISAT 6 19 Apr 10:02:46 10:06:47 34° 68° (ENE) 10:10:56 437.425
ZACube-1 19 Apr 10:08:15 10:11:31 19° 90° (E) 10:14:53 437.345
HO-68 19 Apr 10:09:36 10:16:51 86° 106° (ESE) 10:24:03 435.675
CUBEBUG 2 19 Apr 10:10:39 10:14:49 30° 94° (E) 10:19:03 437.445
AAUSAT CUBESAT 2 19 Apr 10:12:43 10:16:58 72° 103° (ESE) 10:21:08 437.432
Cosmos 2491 19 Apr 10:19:36 10:28:07 51° 72° (ENE) 10:36:41 435.465 / 435.565
POLYITAN 1 19 Apr 10:22:03 10:25:33 26° 67° (ENE) 10:29:09 437.675
Oscar 11 19 Apr 10:24:20 10:28:33 45° 98° (E) 10:32:44 145.826/435.025
DUCHIFAT 1 19 Apr 10:31:59 10:35:40 32° 69° (ENE) 10:39:27 145.980
DELFI C3 19 Apr 10:35:22 10:39:17 44° 98° (E) 10:43:10 145.870
ANTELSAT 19 Apr 10:43:58 10:48:26 85° 76° (ENE) 10:53:04 437.575/2403.000
QB50P1 19 Apr 10:44:22 10:48:20 43° 71° (ENE) 10:52:22 145.935-145.965
DX 1 19 Apr 10:45:45 10:49:26 27° 95° (E) 10:53:09 434.975-435.025
UWE-3 19 Apr 10:52:01 10:56:40 63° 100° (E) 11:01:19 435.000/436.395/437.385
DOVE 4 19 Apr 10:58:31 11:02:53 33° 292° (WNW) 11:07:23 437.250
CINEMA 3 19 Apr 10:58:57 11:03:41 55° 288° (WNW) 11:08:33 145.822/145.860
BUGSAT 1 19 Apr 10:59:21 11:03:10 43° 71° (ENE) 11:07:01 437.445
COMPASS 1 19 Apr 10:59:49 11:03:38 32° 291° (WNW) 11:07:21 437.405
BRITE-PL 19 Apr 11:01:06 11:04:08 16° 297° (WNW) 11:07:08 437.365/2234.400
HUMSAT D 19 Apr 11:01:58 11:05:52 32° 95° (E) 11:09:46 437.325/437.525
QB50P2 19 Apr 11:07:30 11:11:42 79° 76° (ENE) 11:15:58 145.880/145.840
PCSat 19 Apr 11:07:31 11:12:53 61° 307° (NW) 11:18:18 145.827
O/OREOS (USA 219) 19 Apr 11:10:38 11:13:24 16° 259° (W) 11:16:00 437.305
CANX-2 19 Apr 11:10:39 11:13:38 18° 296° (WNW) 11:16:29 2200.000
SEEDS 19 Apr 11:14:21 11:17:34 20° 295° (WNW) 11:20:40 437.485
FUNcube-1 19 Apr 11:21:12 11:25:49 84° 282° (WNW) 11:30:26 145.935
CUTE 1.7 + AOD 2 19 Apr 11:21:12 11:23:51 16° 297° (WNW) 11:26:22 437.475
VELOX 1 19 Apr 11:23:53 11:27:50 31° 96° (E) 11:31:48 145.980
GOMX 1 19 Apr 11:26:02 11:28:48 15° 298° (WNW) 11:31:28 467.674
POPSAT HIP 1 19 Apr 11:30:45 11:34:55 60° 259° (W) 11:39:06 437.405
YUBILEINY 19 Apr 11:30:53 11:39:17 52° 90° (E) 11:47:46 435.215
NANOSAT C BR1 19 Apr 11:30:55 11:35:04 60° 259° (W) 11:39:15 145.865
AISAT 19 Apr 11:38:35 11:42:52 45° 99° (E) 11:47:09 437.250
UKube-1 19 Apr 11:38:46 11:43:08 89° 103° (ESE) 11:47:28 .
TIGRISAT 19 Apr 11:38:47 11:42:40 29° 266° (W) 11:46:36 435.000
UNISAT 6 19 Apr 11:39:47 11:43:37 27° 266° (W) 11:47:31 437.425
AIST 1 19 Apr 11:40:07 11:42:09 13° 64° (ENE) 11:44:21
ZACube-1 19 Apr 11:43:43 11:48:11 50° 288° (WNW) 11:52:38 437.345
CUBEBUG 2 19 Apr 11:47:15 11:51:31 34° 291° (WNW) 11:55:46 437.445
AAUSAT CUBESAT 2 19 Apr 11:50:02 11:52:04 13° 299° (WNW) 11:53:55 437.432
CUBEBUG 1 19 Apr 11:50:38 11:54:26 29° 95° (E) 11:58:16 437.445
50 SAT 19 Apr 11:52:16 11:56:20 70° 101° (E) 12:00:23 437.505
ESTCUBE 1 19 Apr 11:52:23 11:56:30 34° 96° (E) 12:00:37 437.505/2401.250
POLYITAN 1 19 Apr 11:57:38 12:01:24 31° 264° (W) 12:05:11 437.675
HO-68 19 Apr 11:58:24 12:03:50 23° 306° (NW) 12:09:04 435.675
Oscar 11 19 Apr 12:01:12 12:04:28 20° 295° (WNW) 12:07:36 145.826/435.025
SPROUT 19 Apr 12:05:08 12:06:39 12° 87° (E) 12:08:24 437.525
DUCHIFAT 1 19 Apr 12:08:02 12:11:33 25° 266° (W) 12:15:04 145.980
DELFI C3 19 Apr 12:11:19 12:14:09 18° 295° (WNW) 12:16:52 145.870
Cosmos 2491 19 Apr 12:16:50 12:24:54 41° 273° (W) 12:32:49 435.465 / 435.565
QB50P1 19 Apr 12:21:26 12:24:28 19° 269° (W) 12:27:25 145.935-145.965
DX 1 19 Apr 12:21:49 12:25:44 32° 292° (WNW) 12:29:36 434.975-435.025
ANTELSAT 19 Apr 12:24:49 12:26:01 11° 275° (W) 12:26:57 437.575/2403.000
BEESAT 2 19 Apr 12:28:50 12:32:16 24° 40° (NE) 12:35:41 435.950
UWE-3 19 Apr 12:29:39 12:32:46 18° 297° (WNW) 12:35:46 435.000/436.395/437.385
Oscar 19 19 Apr 12:29:43 12:33:47 25° 63° (ENE) 12:37:59 437.125/150
BUGSAT 1 19 Apr 12:36:09 12:38:55 17° 269° (W) 12:41:33 437.445
BEESAT 3 19 Apr 12:36:36 12:40:18 31° 43° (NE) 12:43:58 437.485
HUMSAT D 19 Apr 12:37:50 12:41:33 27° 293° (WNW) 12:45:12 437.325/437.525
AIST 2 19 Apr 12:45:29 12:48:13 17° 33° (NNE) 12:51:02 435.215
QB50P2 19 Apr 12:47:22 12:48:17 10° 274° (W) 12:48:56 145.880/145.840
ITAMSAT 1 19 Apr 12:50:24 12:52:50 14° 57° (ENE) 12:55:28 435.822/435.867
PCSat 19 Apr 12:54:11 12:57:30 16° 329° (NNW) 13:00:42 145.827
Cosmos 2504 19 Apr 12:58:16 13:03:51 20° 77° (ENE) 13:09:50 435.465 / 435.565
FUNcube-1 19 Apr 12:59:50 13:01:29 12° 301° (WNW) 13:02:55 145.935
VELOX 1 19 Apr 13:00:31 13:04:22 29° 293° (WNW) 13:08:09 145.980
AISAT 19 Apr 13:15:50 13:19:13 21° 296° (WNW) 13:22:29 437.250
AIST 1 19 Apr 13:16:07 13:20:21 63° 264° (W) 13:24:34
UKube-1 19 Apr 13:17:07 13:18:40 12° 301° (WNW) 13:20:03 .
SO-50 19 Apr 13:21:22 13:25:30 33° 117° (ESE) 13:29:50 436.795
CUBEBUG 1 19 Apr 13:26:59 13:30:48 29° 292° (WNW) 13:34:32 437.445
YUBILEINY 19 Apr 13:28:13 13:36:26 40° 292° (WNW) 13:44:34 435.215
50 SAT 19 Apr 13:28:47 13:30:41 13° 298° (WNW) 13:32:26 437.505
ESTCUBE 1 19 Apr 13:29:28 13:33:16 27° 294° (WNW) 13:36:59 437.505/2401.250
ITUPSAT 1 19 Apr 13:31:30 13:33:40 13° 87° (E) 13:36:05 437.325
TISAT 1 19 Apr 13:35:47 13:40:03 84° 103° (ESE) 13:44:18 437.305
JAS-2 19 Apr 13:35:54 13:36:54 10° 45° (NE) 13:38:21 435.910
SPROUT 19 Apr 13:39:01 13:43:20 73° 285° (WNW) 13:47:38 437.525
AO-7 19 Apr 13:44:38 13:49:34 18° 44° (NE) 13:54:48 29.400- 29.500
RS-15 19 Apr 13:52:52 13:57:17 14° 97° (E) 14:02:38 29.354- 29.394
ISS 19 Apr 14:03:06 14:04:19 12° 134° (SE) 14:05:40 145.825
BEESAT 19 Apr 14:05:34 14:09:41 29° 95° (E) 14:13:50 436.000
HORYU 2 19 Apr 14:06:17 14:06:54 10° 57° (ENE) 14:07:44 437.375
BEESAT 2 19 Apr 14:06:36 14:10:36 47° 240° (WSW) 14:14:32 435.950
SWISSCUBE 19 Apr 14:06:45 14:11:00 32° 96° (E) 14:15:16 437.505
Oscar 19 19 Apr 14:07:54 14:12:53 49° 261° (W) 14:17:55 437.125/150
BEESAT 3 19 Apr 14:14:37 14:18:21 33° 242° (WSW) 14:21:59 437.485
Gurwin Techsat 1B 19 Apr 14:14:42 14:19:52 57° 71° (ENE) 14:25:06 435.225
AIST 2 19 Apr 14:23:11 14:27:29 88° 54° (NE) 14:31:41 435.215
ITAMSAT 1 19 Apr 14:26:26 14:31:38 84° 74° (ENE) 14:36:51 435.822/435.867
Cosmos 2504 19 Apr 14:47:19 14:56:11 84° 97° (E) 15:05:05 435.465 / 435.565
SO-50 19 Apr 15:01:33 15:06:00 40° 316° (NW) 15:10:35 436.795
ITUPSAT 1 19 Apr 15:07:26 15:12:13 76° 287° (WNW) 15:16:58 437.325
JAS-2 19 Apr 15:13:01 15:20:10 41° 64° (ENE) 15:27:18 435.910
TISAT 1 19 Apr 15:13:43 15:15:16 12° 300° (WNW) 15:16:38 437.305
STARS 19 Apr 15:30:39 15:34:22 26° 94° (E) 15:38:07 437.465
AO-7 19 Apr 15:32:50 15:40:58 64° 66° (ENE) 15:49:09 29.400- 29.500
ISS 19 Apr 15:37:00 15:40:14 75° 150° (SSE) 15:43:31 145.825
HORYU 2 19 Apr 15:38:22 15:42:50 77° 74° (ENE) 15:47:21 437.375
BEESAT 19 Apr 15:43:14 15:47:35 35° 292° (WNW) 15:51:52 436.000
SWISSCUBE 19 Apr 15:44:37 15:48:51 32° 293° (WNW) 15:53:02 437.505
KKS-1 19 Apr 15:54:54 15:59:23 70° 102° (ESE) 16:03:52 437.445
Gurwin Techsat 1B 19 Apr 15:56:14 16:00:17 21° 270° (W) 16:04:13 435.225
GONETS M04 19 Apr 15:56:25 16:01:25 18° 76° (ENE) 16:06:55
AIST 2 19 Apr 16:04:13 16:05:27 11° 251° (WSW) 16:06:29 435.215
ITAMSAT 1 19 Apr 16:09:15 16:11:55 14° 274° (W) 16:14:19 435.822/435.867
